Home > Weather > Quito > Past weeks

Flag for Ecuador Weather for the Past 2 Weeks in Quito, Ecuador

Now
54 °F

Broken clouds.


Feels Like: 50 °F
Forecast: 50 / 74 °F
Wind: 10 mph from South

Location: Latacunga Airport

Current Time: May 1, 2016 at 9:12:15 AM

Latest Report: May 1, 2016 at 8:00 AM


Visibility: N/A

Pressure: 30.45 "Hg (21.70 "Hg at 2826m altitude)

Humidity: 100%

Dew Point: 54 °F

Location of QuitoLocation

Historic Weather in Quito — Graph

°F

Quito Temperature Yesterday

Maximum temperature yesterday: 61 °F (at 11:00 AM)
Minimum temperature yesterday: 52 °F (at 4:00 AM)
Average temperature yesterday: 56 °F

High & Low Weather Summary for the Past Weeks

 TemperatureHumidityPressure
High73 °F (Apr 25, 1:00 PM)100% (Apr 16, 7:00 AM)30.51 "Hg (Apr 16, 7:00 AM)
Low46 °F (Apr 24, 6:00 AM)47% (Apr 25, 1:00 PM)30.24 "Hg (Apr 26, 4:00 PM)
Average57 °F89%30.41 "Hg
* Reported Apr 16 7:00 AM — May 1 7:00 AM, Quito, Weather by CustomWeather, © 2016

Note: Actual official high and low records may vary slightly from our data, if they occured in-between our weather recording intervals... More about our weather records

Advertising

Quito Weather History for the Previous 24 Hours

Scroll right to see more
 ConditionsComfort  
Time TempWeatherWind HumidityBarometerVisibility
7:00 AM
Sun, May 1
52 °FBroken clouds.6 mph100%30.42 "HgN/A
6:00 AM52 °FCool.2 mph100%30.42 "HgN/A
5:00 AM52 °FPartly cloudy.3 mph100%30.42 "HgN/A
4:00 AM50 °FPartly cloudy.2 mph100%30.39 "HgN/A
3:00 AM52 °FPassing clouds.5 mph100%30.39 "HgN/A
2:00 AM52 °FPassing clouds.6 mph100%30.42 "HgN/A
1:00 AM52 °FPassing clouds.7 mph100%30.45 "HgN/A
12:00 AM52 °FPassing clouds.8 mph100%30.45 "HgN/A
11:00 PM
Sat, Apr 30
52 °FPassing clouds.8 mph100%30.45 "HgN/A
10:00 PM52 °FPassing clouds.8 mph100%30.45 "HgN/A
9:00 PM54 °FPassing clouds.7 mph100%30.45 "HgN/A
8:00 PM55 °FPartly cloudy.9 mph100%30.42 "HgN/A
7:00 PM55 °FPartly cloudy.12 mph94%30.36 "HgN/A
6:00 PM57 °FBroken clouds.16 mph88%30.33 "HgN/A
5:00 PM59 °FBroken clouds.10 mph88%30.33 "HgN/A
4:00 PM59 °FPartly sunny.14 mph88%30.33 "HgN/A
3:00 PM59 °FLight rain. Broken clouds.14 mph94%30.33 "HgN/A
2:00 PM61 °FRain showers. Broken clouds.12 mph88%30.36 "HgN/A
1:00 PM61 °FPartly sunny.15 mph83%30.36 "HgN/A
12:00 PM61 °FPartly sunny.14 mph83%30.39 "HgN/A
11:00 AM61 °FPartly sunny.9 mph83%30.42 "HgN/A
10:00 AM59 °FPartly sunny.6 mph88%30.45 "HgN/A
9:00 AM55 °FPartly sunny.5 mph100%30.45 "HgN/A
Weather by CustomWeather, © 2016

See weather overviewHow to use our weather pages